Stations météo

réclame
Mon MeteoGroup
Hyeres, France (7667): Température de l'air & dewpoint: 11.02.2020 21:00:00 - 17.02.2020 21:00:00 (CET)Hyeres, France (7667): Température de l'air 5cm: 11.02.2020 21:00:00 - 17.02.2020 21:00:00 (CET)Hyeres, France (7667): Vitesse du vent & gusts: 11.02.2020 21:00:00 - 17.02.2020 21:00:00 (CET)Hyeres, France (7667): Direction du vent: 11.02.2020 21:00:00 - 17.02.2020 21:00:00 (CET)Hyeres, France (7667): reduced air pressure: 11.02.2020 21:00:00 - 17.02.2020 21:00:00 (CET)Hyeres, France (7667): visibility: 11.02.2020 21:00:00 - 17.02.2020 21:00:00 (CET)Hyeres, France (7667): Quantités de précipitations: 11.02.2020 21:00:00 - 17.02.2020 21:00:00 (CET)
Date & Time tt [°C] td [°C] tt 5cm [°C] ff [km/h] ff [knt] fx [km/h] fx [knt] dd ppp [hPa] vv [km] rr [mm]
17.02.2020 21:00:00 13,5 10,8 10,8 10 6 27 14 WNW 1025,4 43 0,0
17.02.2020 20:00:00 13,2 11,6 10,9 11 6 18 10 W 1025,3 31 0,0
17.02.2020 19:00:00 13,1 11,7 11,1 12 6 23 12 W 1024,7 20 0,0
17.02.2020 18:00:00 13,3 12,0 11,5 10 5 16 9 SW 1024,5 20 0,0
17.02.2020 17:00:00 13,4 12,0 11,7 11 6 20 11 SW 1024,3 20 0,0
17.02.2020 16:00:00 13,3 12,0 11,6 8 4 22 12 SSW 1024,7 13 0,2
17.02.2020 15:00:00 13,6 11,8 12,3 13 7 22 12 S 1025,1 19 0,0
17.02.2020 14:00:00 13,9 11,4 11,8 15 8 29 15 SSW 1025,6 41 0,0
17.02.2020 13:00:00 14,0 11,3 12,4 17 9 26 14 S 1026,3 18 0,0
17.02.2020 12:00:00 14,4 10,6 13,2 14 7 28 15 S 1026,9 48 0,0
17.02.2020 11:00:00 14,3 10,7 13,1 17 9 29 16 S 1027,0 50 0,0
17.02.2020 10:00:00 14,1 10,7 12,2 13 7 22 12 S 1026,8 50 0,0
17.02.2020 09:00:00 13,8 10,0 11,0 10 5 20 11 S 1026,6 55 0,0
17.02.2020 08:00:00 13,6 10,0 10,7 9 5 16 9 S 1026,4 53 0,0
17.02.2020 07:00:00 13,5 10,3 10,6 10 5 16 9 S 1026,1 50 0,0
17.02.2020 06:00:00 13,4 10,6 10,7 8 4 16 9 S 1026,6 41 0,0
17.02.2020 05:00:00 13,1 11,0 10,4 3 2 15 8 SSW 1027,0 39 0,0
17.02.2020 04:00:00 12,3 11,5 10,4 0 0 3 2 N 1026,9 12 0,0
17.02.2020 03:00:00 12,3 11,4 10,5 2 1 6 4 NNE 1027,3 9 0,2
17.02.2020 02:00:00 12,4 11,3 10,4 5 3 8 4 NE 1027,8 9 0,2
17.02.2020 01:00:00 12,5 11,4 10,3 6 3 8 5 NNE 1028,3 15 0,0
17.02.2020 00:00:00 12,5 11,1 10,2 0 0 15 8 N 1028,4 14 0,0
16.02.2020 23:00:00 13,0 11,2 10,2 8 4 16 9 ESE 1028,4 15 0,0
16.02.2020 22:00:00 12,4 10,8 10,2 5 3 9 5 ENE 1028,8 15 0,0
16.02.2020 21:00:00 12,5 10,7 10,3 6 3 9 5 NNE 1028,5 17 0,0
16.02.2020 20:00:00 12,7 10,8 10,3 5 3 10 5 E 1028,5 19 0,0
16.02.2020 19:00:00 12,9 11,0 10,9 5 3 13 7 ENE 1028,4 20 0,0
16.02.2020 18:00:00 13,3 11,2 11,4 8 4 16 9 E 1028,0 33 0,0
16.02.2020 17:00:00 13,7 11,0 12,7 8 5 15 8 ESE 1028,1 38 0,0
16.02.2020 16:00:00 13,7 11,0 13,3 4 2 12 6 E 1028,4 20 0,0
16.02.2020 15:00:00 13,6 10,6 11,6 7 4 10 6 E 1028,1 20 0,0
16.02.2020 14:00:00 12,7 10,1 10,5 4 2 15 8 NNW 1029,0 35 0,0
16.02.2020 13:00:00 12,9 10,1 11,4 7 4 12 6 ESE 1029,0 18 0,0
16.02.2020 12:00:00 13,0 9,8 10,8 4 2 11 6 N 1029,5 20 0,0
16.02.2020 11:00:00 12,1 9,1 10,7 6 4 13 7 NW 1029,5 20 0,0
16.02.2020 10:00:00 11,5 8,7 9,4 11 6 16 9 NNW 1029,1 20 0,0
16.02.2020 09:00:00 10,9 8,3 8,7 9 5 16 8 NW 1029,1 35 0,0
16.02.2020 08:00:00 10,5 7,9 8,2 10 5 17 9 NW 1028,4 44 0,0
16.02.2020 07:00:00 10,1 7,9 8,0 7 4 11 6 NNW 1027,8 45 0,0
16.02.2020 06:00:00 9,7 8,1 7,7 4 2 7 4 N 1027,5 51 0,0
16.02.2020 05:00:00 9,4 7,8 7,5 3 2 5 3 NNE 1027,8 48 0,0
16.02.2020 04:00:00 9,4 7,3 7,6 8 4 11 6 NNE 1028,1 51 0,0
16.02.2020 03:00:00 10,1 7,9 7,0 9 5 16 9 NW 1029,2 60 0,0
16.02.2020 02:00:00 8,8 7,6 5,8 5 3 8 4 NNE 1028,2 43 0,0
16.02.2020 01:00:00 8,5 7,6 3,0 3 2 9 5 N 1028,1 37 0,0
16.02.2020 00:00:00 6,2 5,2 2,1 5 3 8 4 NNE 1028,2 11 0,0
15.02.2020 23:00:00 6,8 5,9 2,1 4 2 7 4 N 1028,5 17 0,0
15.02.2020 22:00:00 7,1 5,9 2,9 4 2 6 3 N 1028,8 11 0,0
15.02.2020 21:00:00 7,9 6,5 1,4 2 1 8 5 N 1028,6 17 0,0
15.02.2020 20:00:00 8,3 5,9 1,3 4 2 8 4 NW 1027,6 19 0,0
15.02.2020 19:00:00 9,7 6,6 3,7 0 0 8 5 N 1027,8 60 0,0
15.02.2020 18:00:00 12,8 8,1 9,7 7 4 16 9 S 1027,3 60 0,0
15.02.2020 17:00:00 14,1 9,3 12,7 12 7 20 11 SE 1026,4 57 0,0
15.02.2020 16:00:00 14,5 9,5 15,5 14 8 24 13 SE 1026,7 60 0,0
15.02.2020 15:00:00 15,3 10,7 14,2 14 8 27 15 E 1026,5 20 0,0
15.02.2020 14:00:00 15,1 11,1 14,8 18 10 29 16 E 1026,8 19 0,0
15.02.2020 13:00:00 15,7 10,5 16,1 17 9 29 15 E 1027,3 18 0,0
15.02.2020 12:00:00 15,0 10,8 13,4 16 9 31 17 E 1027,7 20 0,0
15.02.2020 11:00:00 13,9 10,3 13,4 19 11 36 19 E 1027,5 47 0,0
15.02.2020 10:00:00 14,1 10,7 11,6 21 11 35 19 E 1026,5 19 0,0
15.02.2020 09:00:00 12,3 10,2 7,5 11 6 21 11 ENE 1026,6 18 0,0
15.02.2020 08:00:00 9,6 7,7 6,8 11 6 18 10 N 1025,4 38 0,0
15.02.2020 07:00:00 8,9 6,5 6,5 13 7 18 10 N 1024,7 50 0,0
15.02.2020 06:00:00 9,1 7,2 2,9 12 7 16 9 N 1024,8 56 0,0
15.02.2020 05:00:00 6,9 4,2 -0,5 6 3 13 7 N 1024,5 60 0,0
15.02.2020 04:00:00 3,8 1,5 -0,5 9 5 13 7 N 1024,5 60 0,0
15.02.2020 03:00:00 4,6 1,6 -0,4 5 3 12 7 NNW 1024,8 60 0,2
15.02.2020 02:00:00 6,2 2,8 -0,8 7 4 16 9 N 1024,0 60 0,0
15.02.2020 01:00:00 5,0 2,4 0,3 8 4 13 7 NNE 1023,7 60 0,0
15.02.2020 00:00:00 4,5 2,5 -0,7 6 4 9 5 N 1023,5 60 0,0
14.02.2020 23:00:00 5,1 3,1 0,4 8 4 10 5 NNE 1023,3 30 0,0
14.02.2020 22:00:00 6,7 4,9 0,2 3 2 11 6 N 1022,8 27 0,0
14.02.2020 21:00:00 7,5 4,1 0,4 2 1 11 6 N 1022,4 34 0,0
14.02.2020 20:00:00 9,0 6,3 2,1 5 3 8 4 NE 1021,5 41 0,0
14.02.2020 19:00:00 12,1 8,4 3,7 3 2 12 7 WNW 1020,9 57 0,0
14.02.2020 18:00:00 16,0 3,1 7,9 3 2 16 9 N 1020,1 60 0,0
14.02.2020 17:00:00 18,4 3,4 19,8 11 6 24 13 NNW 1019,4 60 0,0
14.02.2020 16:00:00 19,1 3,3 22,5 12 6 26 14 NNW 1019,0 59 0,0
14.02.2020 15:00:00 19,0 2,3 21,4 14 8 35 19 NW 1019,2 56 0,0
14.02.2020 14:00:00 18,5 2,7 20,7 17 9 39 21 NW 1019,2 56 0,0
14.02.2020 13:00:00 17,8 2,1 20,4 20 11 45 24 NW 1019,5 60 0,0
14.02.2020 12:00:00 16,9 2,1 17,4 15 8 60 33 W 1019,7 60 0,0
14.02.2020 11:00:00 15,4 1,9 15,3 42 23 71 38 NW 1018,1 46 0,0
14.02.2020 10:00:00 14,5 2,7 13,4 36 19 57 31 NW 1018,5 60 0,0
14.02.2020 09:00:00 13,1 1,7 9,3 6 3 45 25 W 1019,1 59 0,0
14.02.2020 08:00:00 11,9 1,8 7,9 28 15 45 25 W 1018,3 54 0,0
14.02.2020 07:00:00 11,6 2,3 8,2 25 13 45 24 W 1018,0 60 0,0
14.02.2020 06:00:00 11,9 2,3 8,4 29 16 56 30 W 1017,6 60 0,0
14.02.2020 05:00:00 11,6 3,1 8,3 31 17 51 28 W 1017,8 58 0,0
14.02.2020 04:00:00 12,3 3,2 8,3 18 10 29 16 W 1017,9 60 0,0
14.02.2020 03:00:00 12,7 5,4 9,0 17 9 45 24 WNW 1017,8 60 0,0
14.02.2020 02:00:00 13,3 7,1 9,5 30 16 52 28 W 1018,2 60 0,0
14.02.2020 01:00:00 12,2 9,8 9,6 26 14 44 24 WSW 1018,5 29 0,0
14.02.2020 00:00:00 12,6 10,1 9,6 27 15 45 24 WSW 1019,2 20 0,0
13.02.2020 23:00:00 12,6 10,3 10,0 29 16 45 24 W 1019,0 19 0,0
13.02.2020 22:00:00 12,9 10,4 10,1 23 13 35 19 W 1018,8 28 0,0
13.02.2020 21:00:00 12,8 10,9 10,3 21 11 29 15 WSW 1019,0 17 0,0
13.02.2020 20:00:00 13,1 10,5 10,4 11 6 25 13 W 1019,2 31 0,0
13.02.2020 19:00:00 12,4 11,1 9,9 4 2 20 11 NNE 1019,9 17 0,0
13.02.2020 18:00:00 11,9 10,6 10,1 2 1 5 3 SSW 1019,1 10 0,0
13.02.2020 17:00:00 11,9 10,6 10,6 2 1 6 3 NNE 1019,5 14 0,0
13.02.2020 16:00:00 11,5 10,1 10,1 4 2 9 5 N 1019,8 6 0,2
13.02.2020 15:00:00 11,6 9,8 10,8 2 1 8 4 E 1019,7 11 0,0
13.02.2020 14:00:00 11,8 9,0 11,7 6 3 11 6 NNW 1020,9 20 0,0
13.02.2020 13:00:00 11,8 8,5 12,0 8 4 12 7 SW 1021,5 52 0,0
13.02.2020 12:00:00 11,8 7,1 10,9 4 2 7 4 S 1022,5 53 0,0
13.02.2020 11:00:00 10,7 5,9 7,9 3 2 6 3 S 1022,3 14 0,0
13.02.2020 10:00:00 8,3 3,7 6,5 0 0 8 4 N 1022,1 12 0,0
13.02.2020 09:00:00 7,1 2,4 3,0 0 0 17 9 N 1021,6 59 0,0
13.02.2020 08:00:00 4,5 -0,1 0,6 14 7 16 9 NW 1021,1 60 0,0
13.02.2020 07:00:00 4,0 -0,8 -1,1 5 3 15 8 NNW 1020,6 60 0,0
13.02.2020 06:00:00 3,5 -0,7 -2,1 6 3 11 6 WNW 1020,7 58 0,0
13.02.2020 05:00:00 3,8 -1,0 -2,1 3 2 6 3 WNW 1020,5 20 0,0
13.02.2020 04:00:00 4,8 -2,1 -1,1 0 0 11 6 N 1020,7 18 0,0
13.02.2020 03:00:00 6,7 -2,2 0,8 2 1 13 7 E 1021,1 20 0,0
13.02.2020 02:00:00 5,5 -1,7 -0,7 9 5 13 7 NW 1021,0 59 0,0
13.02.2020 01:00:00 7,8 -3,7 -1,0 2 1 8 5 WSW 1021,3 16 0,0
13.02.2020 00:00:00 6,3 -3,9 -1,3 2 1 11 6 NNE 1021,1 60 0,0
12.02.2020 23:00:00 8,1 -5,7 -0,3 5 3 18 10 WNW 1021,2 19 0,0
12.02.2020 22:00:00 7,9 -4,2 1,0 10 6 16 8 NW 1021,0 60 0,0
12.02.2020 21:00:00 10,1 -3,6 2,4 8 4 16 9 NNW 1021,1 60 0,0
12.02.2020 20:00:00 11,4 -2,8 6,4 5 3 27 15 WNW 1020,9 60 0,0
12.02.2020 19:00:00 11,9 -2,7 6,4 14 7 24 13 W 1020,7 60 0,0
12.02.2020 18:00:00 13,0 -2,1 9,1 16 9 35 19 W 1020,0 60 0,0
12.02.2020 17:00:00 14,3 0,2 12,1 29 16 43 23 W 1019,9 60 0,0
12.02.2020 16:00:00 15,5 0,1 16,2 26 14 41 22 W 1019,8 19 0,0
12.02.2020 15:00:00 16,3 -0,4 17,7 28 15 44 24 W 1020,1 20 0,0
12.02.2020 14:00:00 16,3 -0,4 17,6 27 15 40 21 W 1020,5 20 0,0
12.02.2020 13:00:00 15,9 -0,4 19,0 24 13 35 19 W 1021,2 60 0,0
12.02.2020 12:00:00 15,2 -2,3 17,7 21 12 30 16 W 1022,1 60 0,0
12.02.2020 11:00:00 14,0 -1,6 15,3 16 9 30 16 W 1022,2 60 0,0
12.02.2020 10:00:00 13,0 -3,8 10,1 19 10 32 17 WNW 1022,2 20 0,0
12.02.2020 09:00:00 10,8 -3,0 6,0 16 8 26 14 W 1021,8 18 0,0
12.02.2020 08:00:00 9,7 -4,7 4,9 19 10 29 16 W 1021,2 59 0,0
12.02.2020 07:00:00 10,5 -5,5 5,6 21 12 29 16 W 1020,3 19 0,0
12.02.2020 06:00:00 11,4 -6,0 6,3 16 9 34 19 W 1020,6 11 0,0
12.02.2020 05:00:00 11,7 -5,8 6,9 22 12 43 23 NW 1020,2 60 0,0
12.02.2020 04:00:00 12,5 -3,4 6,9 20 11 48 26 WNW 1019,9 19 0,0
12.02.2020 03:00:00 12,3 0,1 6,8 9 5 29 16 W 1020,4 18 0,0
12.02.2020 02:00:00 13,4 1,7 9,9 20 11 34 19 WNW 1020,1 20 0,0
12.02.2020 01:00:00 13,7 2,3 10,1 16 9 45 25 WNW 1020,7 60 0,0
12.02.2020 00:00:00 14,5 2,7 11,0 32 18 49 26 WNW 1020,6 14 0,0
11.02.2020 23:00:00 14,4 4,1 11,0 29 15 47 25 W 1020,5 60 0,0
11.02.2020 22:00:00 14,7 4,7 11,7 26 14 39 21 W 1020,3 60 0,0
11.02.2020 21:00:00 15,0 4,7 12,0 26 14 48 26 W 1019,7 60 0,0

tt = Température de l'air
td = dewpoint
tt 5cm = Température de l'air 5cm
ff = Vitesse du vent
fx = gusts
dd = Direction du vent
ppp = reduced air pressure
vv = visibility
rr = Quantités de précipitations

stations d'obs. à proximité